Hourly Weather Roundup
Issued by NWS Central Illinois

Home | Current Version | Previous Version | Text Only | Print | Product List | Glossary On
Versions: 1 2 3 4 5 6 7 8 9 10 11 12 13 14 15 16 17 18 19 20 21 22 23 24 25 26 27 28 29 30 31 32 33 34 35 36 37 38 39 40 41 42 43 44 45 46 47 48 49 50
000
NZUS43 KILX 300510
HWRILX

AREA WEATHER ROUNDUP
NATIONAL WEATHER SERVICE, LINCOLN IL
1200 AM CDT SUN AUG 30 2015


CITY           SKY/WX    TMP DP  RH WIND       PRES   REMARKS
BLOOMINGTON    MOCLDY    73  70  91 CALM      30.04S
CHAMPAIGN      CLOUDY    68  65  90 CALM      30.04S FOG
DANVILLE       CLOUDY    68  67  95 CALM      30.02S
DECATUR        CLOUDY    73  68  84 SW3       30.03S
EFFINGHAM      MOCLDY    68  65  90 E3        30.06S
FLORA          CLOUDY    68  66  94 CALM      30.05S
GALESBURG      PTCLDY    65  65  97 NE3       30.03F FOG
JACKSONVILLE   CLOUDY    75  70  86 SE5       30.02S
LACON          CLOUDY    69  66  92 CALM      30.02S
LAWRENCEVILLE  CLOUDY    70  69  97 CALM      30.05S
LITCHFIELD     CLEAR     66  64  91 SE3       30.03S
$$


CITY           SKY/WX    TMP DP  RH WIND       PRES   REMARKS
LINCOLN        CLOUDY    73  68  84 CALM      30.02S
MACOMB         PTCLDY    68  67  97 E5        30.05S FOG
MATTOON          N/A     71  66  84 S7        30.03F
MT CARMEL AP   CLOUDY    70  68  94 CALM      30.05R FOG
OLNEY-NOBLE AP MOCLDY    68  68 100 CALM      30.05S FOG
PARIS          MOCLDY    69  67  94 S5        30.05S
PEORIA         CLOUDY    73  68  84 NE6       30.02F
PONTIAC        CLOUDY    70  69  96 CALM      30.04R
RANTOUL        CLOUDY    71  69  92 CALM      30.04S
ROBINSON       CLOUDY    69  68  96 CALM      30.06R
SPRINGFIELD    CLOUDY    73  68  84 CALM      30.02S
TAYLORVILLE    PTCLDY    68  64  88 SW5       30.03S
$$

...REGIONAL REPORTS...


CITY           SKY/WX    TMP DP  RH WIND       PRES   REMARKS
CHICAGO O`HARE CLOUDY    66  64  93 N6        30.03S FOG
KANKAKEE       CLOUDY    70  70  99 CALM      30.03S FOG
MOLINE         FOG       62  61  96 CALM      30.03S VSB<1/4
MOUNT STERLING CLOUDY    70  69  97 CALM      30.03R
MOUNT VERNON   CLOUDY    70  64  83 CALM      30.05F
PITTSFIELD     CLOUDY    74  70  87 CALM      30.03S
QUINCY         CLOUDY    72  69  90 NE5       30.02S
ROCKFORD       CLOUDY    67  63  87 N3        30.05F
$$


CITY           SKY/WX    TMP DP  RH WIND       PRES   REMARKS
BURLINGTON     CLEAR     67  67 100 CALM      30.02F FOG
CEDAR RAPIDS   CLEAR     60  60 100 NW3       30.04S FOG
DES MOINES     PTCLDY    66  62  87 CALM      30.04S
KIRKSVILLE     FOG       65  63  93 CALM      30.04F VSB 1/4
OTTUMWA        MOCLDY    61  61 100 N3        30.03S FOG
ST LOUIS       MOCLDY    75  70  83 S5        30.01F
$$


CITY           SKY/WX    TMP DP  RH WIND       PRES   REMARKS
TERRE HAUTE    CLOUDY    70  66  87 SE3       30.05S
EVANSVILLE     CLOUDY    74  71  91 N3        30.05F FOG
INDIANAPOLIS   CLOUDY    73  67  81 SW5       30.05S
LAFAYETTE      CLOUDY    71  67  87 CALM      30.04S
MADISON        CLOUDY    64  62  93 N3        30.05S
MILWAUKEE      FOG       62  61  96 N6        30.04F VSB 1/4
$$




USA.gov is the U.S. government's official web portal to all federal, state and local government web resources and services.